Regional Weather Roundup
Issued by NWS Charleston, WV

Home | Current Version | Previous Version | Graphics & Text | Print | Product List | Glossary On
Versions: 1 2 3 4 5 6 7 8 9 10 11 12 13 14 15 16 17 18 19 20 21 22 23 24 25 26 27 28 29 30 31 32 33 34 35 36 37 38 39 40 41 42 43 44 45 46 47 48 49 50
000
ASUS41 KRLX 310710
RWRRLX
West Virginia Regional Weather Roundup
National Weather Service Charleston WV
200 AM EST SAT JAN 31 2015

Note: "fair" indicates few or no clouds below 12,000 feet with no
significant weather and/or obstructions to visibility.

WVZ003-310800-
Northern Panhandle of West Virginia

CITY           SKY/WX    TMP DP  RH WIND       PRES   REMARKS
WHEELING       CLEAR     10   4  76 CALM      30.38F
$$

WVZ009-310800-
Northwest West Virginia

CITY           SKY/WX    TMP DP  RH WIND       PRES   REMARKS
PARKERSBURG    CLEAR     11   7  84 CALM      30.45F
$$

WVZ006-310800-
Western West Virginia

CITY           SKY/WX    TMP DP  RH WIND       PRES   REMARKS
HUNTINGTON     CLEAR     16  13  88 CALM      30.42S
$$

WVZ015-310800-
West Central West Virginia

CITY           SKY/WX    TMP DP  RH WIND       PRES   REMARKS
CHARLESTON     CLEAR     17  14  88 N3        30.42S
$$

WVZ022-031-310800-
North Central West Virginia

CITY           SKY/WX    TMP DP  RH WIND       PRES   REMARKS
CLARKSBURG     PTCLDY    10   7  87 CALM      30.40S
MORGANTOWN     CLEAR     10   2  69 CALM      30.40S
$$

WVZ025-035-042-045-310800-
Southern West Virginia

CITY           SKY/WX    TMP DP  RH WIND       PRES   REMARKS
BECKLEY        CLEAR     12   7  80 NW5       30.28F WCI   4
LOGAN          PTSUNNY   18  12  79 CALM      30.36S
BLUEFIELD      CLEAR     16   8  71 W7        30.27S WCI   6
LEWISBURG      CLEAR     16   9  71 S5        30.27S WCI   9
$$

WVZ047-310800-
Northern Mountains of West Virginia

CITY           SKY/WX    TMP DP  RH WIND       PRES   REMARKS
ELKINS         CLOUDY    12   7  80 NW3       30.34R
$$

WVZ052-310800-
Eastern Panhandle of West Virginia

CITY           SKY/WX    TMP DP  RH WIND       PRES   REMARKS
MARTINSBURG    CLEAR     18   2  49 NW15      30.31R WCI   4
PETERSBURG     CLEAR     19   2  49 NW6       30.33R
$$


USA.gov is the U.S. government's official web portal to all federal, state and local government web resources and services.